Regional Weather Roundup
Issued by NWS

Home | Current Version | Previous Version | Graphics & Text | Print | Product List | Glossary On
Versions: 1 2 3 4 5 6 7 8 9 10 11 12 13 14 15 16 17 18 19 20 21 22 23 24 25 26 27 28 29 30 31 32 33 34 35 36 37 38 39 40 41 42 43 44 45 46 47 48 49 50
000
ASUS43 KMKX 291100
RWRWI

WISCONSIN REGIONAL WEATHER ROUNDUP
NATIONAL WEATHER SERVICE MILWAUKEE/SULLIVAN WI
600 AM CDT WED MAR 29 2017

NOTE: "FAIR" INDICATES FEW OR NO CLOUDS BELOW 12,000 FEET WITH NO
SIGNIFICANT WEATHER AND/OR OBSTRUCTIONS TO VISIBILITY.

WIZ001-002-006>008-014>016-023>028-291200-
NORTHWEST WISCONSIN

CITY           SKY/WX    TMP DP  RH WIND       PRES   REMARKS
SUPERIOR ARPT  CLEAR     34  30  86 NE9       30.31R WCI  26
ASHLAND        CLOUDY    30  28  92 N7        30.31R WCI  23
HAYWARD        CLOUDY    29  26  89 N7        30.26R WCI  22
SIREN          PTCLDY    33  29  85 NE5       30.25R WCI  28
CUMBERLAND     MOCLDY    36  28  75 CALM      30.24R
RICE LAKE      MOCLDY    30  29  96 CALM      30.25R
CHETEK         MOCLDY    29  28  94 CALM      30.25R
LADYSMITH      CLOUDY    33  29  85 E3        30.27S
EAU CLAIRE     NOT AVBL
MENOMONIE      CLOUDY    35  31  83 CALM      30.24R
NEW RICHMOND   CLOUDY    38  29  72 E6        30.22S WCI  33
OSCEOLA        CLOUDY    37  29  74 CALM      30.25R
$$

WIZ003>005-009-010-017-018-291200-
NORTH CENTRAL WISCONSIN

CITY           SKY/WX    TMP DP  RH WIND       PRES   REMARKS
MANITOWISH WTR CLEAR     27  27 100 CALM      30.27R
ARBOR VITAE    CLEAR     32  28  87 CALM      30.26R
WOODRUFF       CLEAR     32  28  87 CALM      30.26R
RHINELANDER    CLEAR     30  27  88 E3        30.28R
EAGLE RIVER    CLEAR     26  26 100 CALM      30.28R
LAND O LAKES   CLEAR     25  25  99 CALM      30.30R
PHILLIPS       CLOUDY    28  26  94 CALM      30.26R
TOMAHAWK       CLEAR     25  24  95 CALM      30.28R
MEDFORD        CLOUDY    30  27  88 E6        30.25S WCI  24
MERRILL        CLOUDY    27  27  99 CALM      30.28R
$$

WIZ029-030-035-036-043>047-291200-
CENTRAL WISCONSIN

CITY           SKY/WX    TMP DP  RH WIND       PRES   REMARKS
WAUSAU         CLOUDY    30  28  92 CALM      30.27R
MOSINEE        NOT AVBL
MARSHFIELD     CLOUDY    35  28  75 E6        30.25R WCI  30
STEVENS POINT  CLOUDY    33  28  82 E7        30.28R WCI  27
WAUPACA        CLEAR     35  32  90 CALM      30.29R
WAUTOMA        PTCLDY    34  31  88 NE7       30.28R WCI  28
WISC RAPIDS    CLOUDY    34  30  85 E3        30.28R
CAMP DOUGLAS   MOCLDY    28  27  93 CALM      30.25R FOG
$$

WIZ011>013-019>022-031-037>040-048>050-291200-
NORTHEAST WISCONSIN

CITY           SKY/WX    TMP DP  RH WIND       PRES   REMARKS
ANTIGO         CLEAR     30  26  84 CALM      30.28R
SHAWANO        CLOUDY    34  31  88 NE3       30.30R
OCONTO         CLEAR     32  28  86 NE5       30.30R WCI  27
STURGEON BAY   CLEAR     36  28  73 NE8       30.28F WCI  30
GREEN BAY      CLOUDY    34  32  92 NE9       30.30R WCI  27
MANITOWOC      NOT AVBL
APPLETON       PTCLDY    36  30  80 NE7       30.27R WCI  30
CLINTONVILLE   CLOUDY    32  30  93 CALM      30.29R
OSHKOSH        CLEAR     36  31  82 NE6       30.27R WCI  31
$$

WIZ032>034-041-042-053>061-291200-
SOUTHWEST WISCONSIN

CITY           SKY/WX    TMP DP  RH WIND       PRES   REMARKS
LA CROSSE      CLOUDY    41  33  73 E7        30.23R
SPARTA         MOCLDY    28  27  95 CALM      30.25R
VIROQUA        CLOUDY    37  33  84 CALM      30.22R
BOSCOBEL       MOCLDY    33  31  92 CALM      30.24R FOG
PRAIRIE DU CHI CLOUDY    39  35  86 E5        30.22S
PLATTEVILLE    MOCLDY    37  37 100 NE8       30.21S WCI  31
$$

WIZ056-057-062-063-064-067-068-291200-
SOUTH CENTRAL WISCONSIN

CITY           SKY/WX    TMP DP  RH WIND       PRES   REMARKS
REEDSBURG      CLOUDY    32  32 100 CALM      30.24S
BARABOO/DELLS  CLOUDY    34  32  92 CALM      30.24S
LONE ROCK      NOT AVBL
MINERAL POINT  FOG       37  37 100 E3        30.22R VSB 1/2
MADISON        FOG       31  30  96 CALM      30.25R VSB 1/4
MIDDLETON      CLOUDY    33  33 100 CALM      30.24R
WATERTOWN      FOG       31  31 100 CALM      30.25R VSB 3/4
MONROE         FOG       32  32 100 NE5       30.22R VSB 1/4 WCI  27
JANESVILLE     CLOUDY    32  32 100 CALM      30.23R FOG
$$

WIZ051-052-058>065-066-070>072-291200-
SOUTHEAST WISCONSIN

CITY           SKY/WX    TMP DP  RH WIND       PRES   REMARKS
MILWAUKEE      FOG       33  30  88 N5        30.26R VSB 1/4 WCI  29
WAUKESHA       CLEAR     28  28 100 CALM      30.27R
MILWAUKEE/TIMM MOCLDY    30  30 100 CALM      30.27R
RACINE         FOG       30  28  92 N6        30.27R VSB 1/4 WCI  24
KENOSHA        FOG       31  30  96 NE5       30.26R VSB 1/4 WCI  26
FOND DU LAC    CLEAR     36  29  75 E5        30.27R WCI  32
SHEBOYGAN      CLEAR     33  31  92 NE7       30.28R WCI  27
WEST BEND      CLEAR     30  30 100 CALM      30.26R
JUNEAU         CLEAR     32  31  96 NE3       30.26R
$$

LSZ147-162-291200-
LAKE SUPERIOR

STATION/POSITION TIME  TEMP    WIND        PRES    WAVE
                       AIR SEA DIR/SP/G            HT/PER
                 (UTC) (F)     (DEG/KT/KT) (MB)    (FT/S)
DEVILS ISLAND    1000   35      60/ 20/ 22 1027.3S
PORT WING        1040   34      50/ 11/ 14 1026.4S
SAXON HARBOR     1040   26     200/  2/  3 1025.7R
$$

LMZ867-665-643>646-291200-
LAKE MICHIGAN

STATION/POSITION TIME  TEMP    WIND        PRES    WAVE
                       AIR SEA DIR/SP/G            HT/PER
                 (UTC) (F)     (DEG/KT/KT) (MB)    (FT/S)
CHAMBERS ISLAND  1040   32      20/  8/ 10 1026.4R
NORTHPORT PIER   1040   33     360/  5/  6 1026.8R
SISTER BAY       1006   32        CALM       N/A
KEWAUNEE LAKESHO 1024   36      20/  5/  8 1025.1
SHEBOYGAN LAKESH 1000   36      10/ 12/ 13 1025.3R
PORT WASHINGTON  1040   35     350/  4/  7 1025.7R
MILWAUKEE LAKESH 1030   30      40/  2/  2   N/A
KENOSHA   LAKESH 1000   31      30/  6/  7 1024.4
$$

TC  - TEMPERATURE IN CELSIUS
VSB - VISIBILITY IN STATUTE MILES
WCI - WIND CHILL INDEX
HX  - HEAT INDEX




USA.gov is the U.S. government's official web portal to all federal, state and local government web resources and services.